Farmington, NM

2:14 PM MDT on July 25, 2017 (GMT -0600)
Four Corners Regional

Weather History for KFMN - August, 2014

Change the Weather History Date:

Friday, August 29, 2014

  Actual Average Record
Temperature  
Mean Temperature 65 °F -  
Max Temperature 82 °F 85 °F 95 °F (2012)
Min Temperature 48 °F 56 °F 48 °F (2014)
Growing Degree Days 15 (Base 50)    
Moisture  
Dew Point 39 °F    
Average Humidity 38    
Maximum Humidity 71    
Minimum Humidity 10    
Precipitation  
Precipitation 0.00 in - - ()
Sea Level Pressure  
Sea Level Pressure 29.99 in    
Wind  
Wind Speed 5 mph (North)    
Max Wind Speed 10 mph    
Max Gust Speed 20 mph    
Visibility 10 miles    
Events      
Averages and records for this station are not official NWS values.
T = Trace of Precipitation, MM = Missing Value Source: NWS Daily Summary

Daily Weather History Graph

Daily Weather History Graph

Search for Another Location

Airport or City:

Trip Planner

Search our weather history database for the weather conditions in past years. The results will help you decide how hot, cold, wet, or windy it might be!

Date:

Astronomy

Aug. 29, 2014 Rise Set
Actual Time 6:41 AM MDT 7:45 PM MDT
Civil Twilight 6:14 AM MDT 8:11 PM MDT
Nautical Twilight 5:43 AM MDT 8:43 PM MDT
Astronomical Twilight 5:10 AM MDT 9:16 PM MDT
Moon 10:27 AM MDT (8/29) 9:52 PM MDT (8/29)
Length of Visible Light 13h 56m
Length of Day
13h 03m
Waxing Crescent, 15% of the Moon is Illuminated
Aug 29
Waxing Crescent
Sep 2
First Quarter
Sep 8
Full
Sep 15
Last Quarter
Sep 24
New

Hourly Weather History & Observations

Time (MDT) Temp. Dew Point Humidity Pressure Visibility Wind Dir Wind Speed Gust Speed Precip Events Conditions
12:53 AM 59.0 °F 43.0 °F 55% 30.01 in 10.0 mi NE 5.8 mph - N/A   Clear
1:53 AM 59.0 °F 41.0 °F 51% 30.00 in 10.0 mi Calm Calm - N/A   Clear
2:53 AM 57.9 °F 41.0 °F 53% 30.00 in 10.0 mi NNW 4.6 mph - N/A   Clear
3:53 AM 53.1 °F 42.1 °F 66% 30.01 in 10.0 mi North 4.6 mph - N/A   Clear
4:53 AM 53.1 °F 41.0 °F 64% 30.01 in 10.0 mi Calm Calm - N/A   Clear
5:53 AM 51.1 °F 42.1 °F 71% 30.02 in 10.0 mi NE 5.8 mph - N/A   Clear
6:53 AM 50.0 °F 41.0 °F 71% 30.05 in 10.0 mi ENE 5.8 mph - N/A   Clear
7:53 AM 55.9 °F 42.1 °F 60% 30.06 in 10.0 mi East 3.5 mph - N/A   Clear
9:53 AM 64.9 °F 41.0 °F 42% 30.05 in 10.0 mi ESE 5.8 mph - N/A   Clear
10:53 AM 70.0 °F 39.0 °F 32% 30.05 in 10.0 mi ESE 3.5 mph - N/A   Clear
11:53 AM 75.0 °F 37.9 °F 26% 30.01 in 10.0 mi Variable 3.5 mph - N/A   Clear
12:53 PM 78.1 °F 35.1 °F 21% 30.00 in 10.0 mi Variable 4.6 mph - N/A   Clear
2:53 PM 80.1 °F 34.0 °F 19% 29.96 in 10.0 mi NW 5.8 mph 19.6 mph N/A   Clear
3:53 PM 82.9 °F 36.0 °F 19% 29.95 in 10.0 mi WSW 10.4 mph 17.3 mph N/A   Clear
4:53 PM 82.9 °F 37.0 °F 19% 29.93 in 10.0 mi SW 10.4 mph - N/A   Clear
5:53 PM 82.0 °F 37.0 °F 20% 29.93 in 10.0 mi SW 8.1 mph - N/A   Clear
6:53 PM 80.1 °F 39.0 °F 23% 29.93 in 10.0 mi WSW 10.4 mph - N/A   Clear
7:53 PM 77.0 °F 37.9 °F 24% 29.92 in 10.0 mi West 10.4 mph - N/A   Clear
9:53 PM 71.1 °F 39.0 °F 31% 29.96 in 10.0 mi Calm Calm - N/A   Clear
10:53 PM 64.9 °F 41.0 °F 42% 29.97 in 10.0 mi NNE 3.5 mph - N/A   Clear
11:53 PM 61.0 °F 42.1 °F 50% 29.96 in 10.0 mi North 3.5 mph - N/A   Clear